SL-14 R/B, 23005

Orbit data source: Space-Track

SL-14 R/B, 23005 is space debris in LEO originally from a launch on Sat, 12 Feb 1994 UTC launched from the Plesetsk Missile And Space Complex (PKMTR). Debris objects in space refer to the collection of defunct objects orbiting the Earth. Examples of debris include non-operational satellites, rocket bodies, and fragments generated from explosions, collisions, or faulty payload assembly.

Loading next visibility...
Identifier
23005, 1994-011G
Orbit
LEO
Country
Flag of CISCIS
Related business
Manufacturer
Yuzhnoe
Mission
Spacecraft
Bus & Motor
S5M, Unknown motor
Mass
1,600 kg wet, 1,600 kg dry
Launch date (UTC)
1994-02-12 (32 years ago)
Launch vehicle
Unknown
Launch site
Plesetsk Missile And Space Complex (PKMTR)
Object type
Payload
Rocket body
Debris
Shape & HBR
Cyl, 1.4 m
Radar Cross Section
7.351 m², Large (>1 m²)

Expand to show TLE details & history
Last TLE update: 11 hours ago

TLE from 11 hours ago
0 SL-14 R/B
1 23005U 94011G   26125.38299816  .00000024  00000-0  82954-4 0  9995
2 23005  82.5747  89.8493 0040506 208.2229 268.5147 12.55223517476380
Epoch: 2026-05-05T09:11Z
TLE epoch observation values (Epoch: 2026-05-05T09:11:31.041Z)
Latitude
62.85331°
Longitude
-105.93901°
Altitude
1,454.429 km
Speed
7.14 km/s
True Right ascension
17h 00m 47s
True Declination
62° 43' 33"
Sunlit
Object was in daylight at epoch
Visualization orbit readout
Latitude
Unknown
Longitude
Unknown
Altitude
Unknown
Speed
Unknown
Apparent Right ascension
Unknown
Apparent Declination
Unknown
Sunlit
N/A
Visualization observer readout
Local Sidereal Time
04:23:31
Azimuth
Unknown
Elevation
Unknown
Doppler factor
Unknown
Orbital elements
Apogee altitude
1,471.721 km
Perigee altitude
1,408.385 km
Semi-major axis
7,818.19 km
Eccentricity
0.00405
Inclination
82.5747°
RAAN
89.8493°
Arg. of periapsis
208.2229°
True anomaly
268.05076°
Mean anomaly
268.5147°
Eccentric anomaly
268.28272°
Mean motion
3.13967 °/min
Orbital period
114.66 mins
BSTAR
0.000082954
Loading maneuver chart data...
Computing Atmospheric mass density...
Loading historical data...
Loading historical data...
Loading historical data...
Loading historical data...
Loading historical data...
Loading historical data...
Loading historical data...

Documentation

Showing up to 5 results
|